Regional Weather Roundup
Issued by NWS Green Bay, WI

Home | Current Version | Previous Version | Graphics & Text | Print | Product List | Glossary Off
Versions: 1 2 3 4 5 6 7 8 9 10 11 12 13 14 15 16 17 18 19 20 21 22 23 24 25 26 27 28 29 30 31 32 33 34 35 36 37 38 39 40 41 42 43 44 45 46 47 48 49 50

000
ASUS43 KGRB 251000
RWRGRB

NORTH-CENTRAL AND NORTHEAST WISCONSIN REGIONAL WEATHER ROUNDUP
NATIONAL WEATHER SERVICE GREEN BAY WI
500 AM CDT SAT MAR 25 2017

WIZ005-009-010>012-018-019-251100-
NORTH CENTRAL WISCONSIN

CITY           SKY/WX    TMP DP  RH WIND       PRES   REMARKS
IRONWOOD       CLOUDY    32  29  88 E5        30.25S
MANITOWISH WTR NOT AVBL
ARBOR VITAE    NOT AVBL
EAGLE RIVER    NOT AVBL
LAND O LAKES   NOT AVBL
RHINELANDER    CLOUDY    34  32  92 E10       30.19S
PHILLIPS       NOT AVBL
ANTIGO         NOT AVBL
TOMAHAWK       NOT AVBL
MERRILL        NOT AVBL
$$

WIZ013-073-251100-
NORTHEAST WISCONSIN

CITY           SKY/WX    TMP DP  RH WIND       PRES   REMARKS
IRON MOUNTAIN  CLOUDY    33  29  85 NE7       30.22R
MARINETTE        N/A    N/A N/A N/A MISG        N/A
$$

WIZ017-030-035>037-045-251100-
CENTRAL WISCONSIN

CITY           SKY/WX    TMP DP  RH WIND       PRES   REMARKS
MEDFORD        NOT AVBL
WAUSAU         CLOUDY    33  30  88 E12       30.17F
MOSINEE        NOT AVBL
MARSHFIELD     CLOUDY    33  30  88 E14       30.15S
WISC RAPIDS    CLOUDY    34  32  92 E14       30.17S
STEVENS POINT  NOT AVBL
WAUPACA        NOT AVBL
SHAWANO        NOT AVBL
CLINTONVILLE   NOT AVBL
WAUTOMA        CLOUDY    34  33  96 NE12G20   30.14F
$$

WIZ038-039-048-051-251100-
FOX VALLEY

CITY           SKY/WX    TMP DP  RH WIND       PRES   REMARKS
NWS GREEN BAY  CLOUDY    35  34  96 N18       30.18R
APPLETON       NOT AVBL
OSHKOSH        CLOUDY    35  33  92 NE16      30.15R FOG
FOND DU LAC    MIX PCPN  36  32  85 NE15      30.13S FOG
$$

WIZ022-050-052-251100-
EAST CENTRAL WISCONSIN

CITY           SKY/WX    TMP DP  RH WIND       PRES   REMARKS
EPHRAIM        NOT AVBL
WASHINGTON ISL NOT AVBL
STURGEON BAY   CLOUDY    35  33  92 NE12      30.21R
MANITOWOC      NOT AVBL
SHEBOYGAN      CLOUDY    36  33  89 NE18      30.13R
$$

LMZ563-521-522-541>543-251100-
LAKESHORE

STATION/POSITION TIME  TEMP    WIND        PRES    VSBY  WAVE
                       AIR SEA DIR/SP/G                  HT/PER
                 (UTC) (F)     (DEG/KT/KT) (MB)    (MI)  (FT/S)
SHEBOYGAN LKSHOR 0900   36      30/ 19/ 22 1020.2F
KEWAUNEE LKSHORE 0930   36      40/ 15/ 17 1021.0S
NORTHPORT PIER   0940   35      50/ 12/ 15 1023.7R
SISTER BAY LKSHO 0905   35      30/  8/ 11   N/A
CHAMBERS ISLAND  0940   33      20/ 11/ 13 1023.0R
MENOMINEE LKSHOR 0930   34      30/ 15/ 18 1022.5R
$$




USA.gov is the U.S. government's official web portal to all federal, state and local government web resources and services.